QPF
0.17 0.26 0.18 0.01 0.02 0.01 0.01 0.00 0.00 0.00 0.00 0.00 0.00 0.00 0.00 0.00 0.00 0.00 0.00 0.01 0.01 0.00 0.00 0.00 0.01 0.01 0.01 0.01 0.00 0.01 0.00 0.00 0.00 0.00 0.00 0.00 0.00 0.00 0.00 0.00 0.00 0.00
0.08 0.23 0.05 0.01 0.01 0.01 0.01 0.00 0.00 0.00 0.00 0.00 0.00 0.00 0.00 0.00 0.00 0.00 0.00 0.00 0.00 0.00 0.00 0.00 0.00 0.01 0.01 0.01 0.01 0.01 0.01 0.00 0.00 0.00 0.00 0.00 0.00 0.00 0.00 0.00 0.00 0.00
0.27 0.30 0.03 0.01 0.02 0.01 0.01 0.00 0.00 0.00 0.00 0.00 0.00 0.00 0.00 0.00 0.00 0.00 0.00 0.00 0.00 0.00 0.00 0.00 0.00 0.00 0.00 0.00 0.00 0.00 0.00 0.00 0.00 0.00 0.00 0.00 0.00 0.00 0.00 0.00 0.00 0.00
0.12 0.16 0.07 0.00 0.00 0.01 0.00 0.00 0.00 0.00 0.00 0.00 0.00 0.00 0.00 0.00 0.00 0.00 0.00 0.01 0.00 0.00 0.00 0.00 0.00 0.00 0.00 0.00 0.00 0.00 0.00 0.00 0.00 0.00 0.00 0.00 0.00 0.00 0.00 0.00 0.00 0.00
0.04 0.09 0.02 0.00 0.00 0.00 0.00 0.00 0.00 0.00 0.00 0.00 0.00 0.00 0.00 0.00 0.00 0.00 0.00 0.00 0.00 0.00 0.00 0.00 0.00 0.00 0.00 0.01 0.00 0.01 0.00 0.00 0.00 0.00 0.00 0.00 0.00 0.00 0.00 0.00 0.00 0.00
0.02 0.01 0.00 0.00 0.00 0.00 0.00 0.00 0.00 0.00 0.00 0.00 0.00 0.00 0.00 0.00 0.00 0.00 0.00 0.00 0.00 0.00 0.00 0.00 0.00 0.00 0.00 0.00 0.00 0.00 0.00 0.00 0.00 0.00 0.00 0.00 0.00 0.00 0.00 0.00 0.00 0.00
0.01 0.02 0.00 0.00 0.00 0.00 0.00 0.00 0.00 0.00 0.00 0.00 0.00 0.00 0.00 0.00 0.00 0.00 0.00 0.00 0.00 0.00 0.00 0.00 0.00 0.00 0.00 0.00 0.00 0.00 0.00 0.00 0.00 0.00 0.00 0.00 0.00 0.00 0.00 0.00 0.00 0.00
0.01 0.01 0.01 0.00 0.00 0.00 0.00 0.00 0.00 0.00 0.00 0.00 0.00 0.00 0.00 0.00 0.01 0.00 0.00 0.00 0.00 0.00 0.00 0.00 0.00 0.00 0.00 0.00 0.00 0.00 0.00 0.00 0.00 0.00 0.00 0.00 0.00 0.00 0.00 0.00 0.00 0.00
0.01 0.01 0.01 0.00 0.00 0.00 0.00 0.00 0.00 0.00 0.00 0.00 0.00 0.00 0.00 0.00 0.01 0.01 0.00 0.00 0.00 0.00 0.00 0.00 0.00 0.00 0.00 0.00 0.00 0.00 0.00 0.00 0.00 0.00 0.00 0.00 0.00 0.00 0.00 0.00 0.00 0.00
0.02 0.01 0.01 0.00 0.00 0.00 0.00 0.00 0.00 0.00 0.00 0.00 0.00 0.00 0.00 0.00 0.00 0.00 0.00 0.00 0.00 0.00 0.00 0.00 0.00 0.00 0.00 0.00 0.00 0.00 0.00 0.00 0.00 0.00 0.00 0.00 0.00 0.00 0.00 0.00 0.00 0.00
0.02 0.04 0.01 0.00 0.00 0.00 0.00 0.00 0.00 0.00 0.00 0.00 0.00 0.00 0.00 0.00 0.00 0.00 0.00 0.00 0.00 0.00 0.00 0.00 0.00 0.00 0.00 0.00 0.00 0.00 0.00 0.00 0.00 0.00 0.00 0.00 0.00 0.00 0.00 0.00 0.00 0.00
0.02 0.06 0.01 0.00 0.00 0.00 0.00 0.00 0.00 0.00 0.00 0.00 0.00 0.00 0.00 0.00 0.02 0.00 0.01 0.00 0.00 0.00 0.00 0.00 0.00 0.00 0.00 0.00 0.00 0.00 0.00 0.00 0.00 0.00 0.00 0.00 0.00 0.00 0.00 0.00 0.00 0.00
0.06 0.02 0.00 0.00 0.00 0.00 0.00 0.00 0.00 0.00 0.00 0.00 0.00 0.00 0.00 0.00 0.00 0.00 0.00 0.00 0.00 0.00 0.00 0.00 0.00 0.00 0.00 0.00 0.00 0.00 0.00 0.00 0.00 0.00 0.00 0.00 0.00 0.00 0.00 0.00 0.00 0.00
0.00 0.00 0.00 0.00 0.00 0.00 0.00 0.00 0.00 0.00 0.00 0.00 0.00 0.00 0.00 0.00 0.00 0.00 0.00 0.00 0.00 0.00 0.00 0.00 0.00 0.00 0.00 0.00 0.00 0.00 0.00 0.00 0.00 0.00 0.00 0.00 0.00 0.00 0.00 0.00 0.00 0.00
0.01 0.00 0.00 0.00 0.00 0.00 0.00 0.00 0.00 0.00 0.00 0.00 0.00 0.00 0.00 0.00 0.00 0.00 0.00 0.00 0.00 0.00 0.00 0.00 0.00 0.00 0.00 0.00 0.00 0.00 0.00 0.00 0.00 0.00 0.00 0.00 0.00 0.00 0.00 0.00 0.00 0.00
0.01 0.00 0.00 0.00 0.00 0.00 0.00 0.00 0.00 0.00 0.00 0.00 0.00 0.00 0.00 0.00 0.00 0.00 0.00 0.00 0.00 0.00 0.00 0.00 0.00 0.00 0.00 0.00 0.00 0.00 0.00 0.00 0.00 0.00 0.00 0.00 0.00 0.00 0.00 0.00 0.00 0.00
0.03 0.01 0.00 0.00 0.00 0.00 0.00 0.00 0.00 0.00 0.00 0.00 0.00 0.00 0.00 0.00 0.00 0.00 0.00 0.00 0.00 0.00 0.00 0.00 0.00 0.00 0.00 0.00 0.00 0.00 0.00 0.00 0.00 0.00 0.00 0.00 0.00 0.00 0.00 0.00 0.00 0.00
0.01 0.02 0.02 0.01 0.01 0.00 0.00 0.00 0.00 0.00 0.00 0.00 0.00 0.00 0.00 0.00 0.00 0.00 0.00 0.00 0.00 0.00 0.00 0.00 0.00 0.00 0.00 0.00 0.00 0.00 0.00 0.00 0.00 0.00 0.00 0.00 0.00 0.00 0.00 0.00 0.00 0.00
0.01 0.01 0.02 0.02 0.01 0.01 0.00 0.00 0.00 0.00 0.00 0.00 0.00 0.00 0.00 0.00 0.00 0.00 0.00 0.00 0.00 0.00 0.00 0.00 0.00 0.00 0.00 0.00 0.00 0.00 0.00 0.00 0.00 0.00 0.00 0.00 0.00 0.00 0.00 0.00 0.00 0.00
0.10 0.03 0.01 0.01 0.01 0.01 0.00 0.00 0.00 0.00 0.00 0.00 0.00 0.00 0.00 0.00 0.00 0.00 0.00 0.00 0.00 0.00 0.00 0.00 0.00 0.00 0.00 0.00 0.00 0.00 0.00 0.00 0.00 0.00 0.00 0.00 0.00 0.00 0.00 0.00 0.00 0.00
0.01 0.02 0.02 0.01 0.00 0.01 0.01 0.00 0.00 0.00 0.00 0.00 0.00 0.00 0.00 0.00 0.00 0.00 0.00 0.00 0.00 0.00 0.00 0.00 0.00 0.00 0.00 0.00 0.00 0.00 0.00 0.00 0.00 0.00 0.00 0.00 0.00 0.00 0.00 0.00 0.00 0.00
0.00 0.00 0.02 0.04 0.03 0.01 0.01 0.01 0.01 0.00 0.00 0.00 0.00 0.00 0.00 0.00 0.00 0.00 0.00 0.00 0.00 0.00 0.00 0.00 0.00 0.00 0.00 0.00 0.00 0.00 0.00 0.00 0.00 0.00 0.00 0.00 0.00 0.00 0.00 0.00 0.00 0.00
0.10 0.05 0.02 0.03 0.04 0.05 0.02 0.02 0.02 0.01 0.01 0.01 0.01 0.01 0.00 0.00 0.00 0.00 0.00 0.00 0.00 0.00 0.00 0.00 0.00 0.00 0.00 0.00 0.00 0.00 0.00 0.00 0.00 0.00 0.00 0.00 0.00 0.00 0.00 0.00 0.00 0.00
0.04 0.06 0.06 0.05 0.03 0.10 0.06 0.04 0.02 0.01 0.01 0.01 0.01 0.01 0.01 0.01 0.00 0.00 0.00 0.00 0.00 0.00 0.00 0.00 0.00 0.00 0.00 0.00 0.00 0.00 0.00 0.00 0.00 0.00 0.00 0.00 0.00 0.00 0.00 0.00 0.00 0.00
0.00 0.01 0.02 0.04 0.12 0.16 0.19 0.24 0.07 0.24 0.06 0.02 0.01 0.01 0.00 0.00 0.00 0.01 0.00 0.00 0.00 0.00 0.00 0.00 0.00 0.00 0.00 0.00 0.00 0.00 0.00 0.00 0.00 0.00 0.00 0.00 0.00 0.00 0.00 0.00 0.00 0.00
0.01 0.01 0.01 0.02 0.03 0.04 0.42 0.52 0.29 0.24 0.25 0.22 0.17 0.04 0.01 0.01 0.01 0.01 0.00 0.01 0.00 0.00 0.00 0.00 0.00 0.00 0.00 0.00 0.00 0.00 0.00 0.00 0.00 0.00 0.00 0.00 0.00 0.00 0.00 0.00 0.00 0.00
MSLP
1014.73 1015.05 1014.81 1014.41 1014.53 1014.53 1014.89 1015.17 1015.17 1015.33 1015.53 1015.57 1016.05 1016.29 1016.45 1016.57 1016.65 1016.89 1016.93 1017.05 1017.45 1017.65 1017.81 1017.89 1017.93 1018.05 1017.97 1018.01 1018.09 1018.13 1018.09 1018.13 1017.93 1018.09 1018.33 1018.29 1018.33 1018.25 1018.37 1018.37 1018.33 1018.37
1015.05 1015.09 1014.41 1014.09 1014.37 1014.45 1014.49 1014.65 1014.85 1015.01 1015.41 1015.41 1015.49 1015.85 1016.09 1016.33 1016.61 1016.73 1016.93 1017.09 1017.33 1017.49 1017.61 1017.73 1017.81 1017.89 1017.93 1017.93 1018.09 1018.17 1018.25 1018.21 1018.37 1017.69 1018.29 1018.41 1018.25 1018.01 1018.17 1018.17 1018.29 1018.09
1015.01 1015.17 1014.41 1014.05 1014.17 1014.37 1014.33 1014.33 1014.53 1014.81 1015.01 1015.09 1015.25 1015.49 1015.89 1016.09 1016.45 1016.57 1016.69 1016.93 1017.17 1017.17 1017.45 1017.49 1017.61 1017.73 1017.73 1017.81 1017.93 1018.09 1018.17 1018.37 1018.41 1017.81 1018.09 1018.37 1018.09 1018.13 1018.01 1017.81 1017.93 1018.09
1014.81 1014.81 1014.33 1013.49 1013.73 1014.01 1014.01 1014.25 1014.49 1014.69 1014.61 1015.05 1015.21 1015.29 1015.49 1015.65 1016.01 1016.33 1016.57 1016.81 1017.05 1017.09 1017.05 1017.21 1017.33 1017.37 1017.53 1017.57 1017.81 1017.93 1017.93 1018.21 1018.09 1017.93 1018.25 1018.17 1018.09 1017.93 1017.93 1017.81 1017.73 1017.69
1014.09 1014.41 1013.37 1013.05 1013.25 1013.53 1013.73 1014.09 1014.29 1014.49 1014.57 1014.73 1014.85 1015.05 1015.45 1015.65 1015.85 1015.97 1016.25 1016.69 1016.93 1017.01 1017.01 1017.13 1017.21 1017.21 1017.33 1017.49 1017.65 1017.97 1017.85 1018.09 1018.17 1018.21 1018.33 1018.45 1018.17 1018.13 1017.85 1017.69 1017.97 1018.09
1013.29 1013.13 1012.93 1012.89 1013.01 1013.29 1013.53 1013.77 1013.85 1014.09 1014.37 1014.57 1014.77 1014.81 1015.21 1015.57 1015.73 1015.69 1015.85 1016.25 1016.53 1016.69 1016.65 1016.81 1016.97 1017.01 1017.09 1017.37 1017.57 1017.73 1017.65 1017.69 1017.57 1017.97 1018.29 1018.41 1018.17 1017.73 1017.65 1017.61 1017.97 1018.21
1012.81 1013.09 1012.85 1012.73 1012.85 1013.09 1013.25 1013.29 1013.49 1013.69 1013.97 1014.13 1014.41 1014.77 1015.01 1015.45 1015.65 1015.61 1015.61 1015.81 1016.05 1016.29 1016.33 1016.45 1016.77 1016.85 1016.81 1017.09 1017.53 1017.77 1017.65 1017.61 1017.45 1017.77 1018.21 1018.13 1018.13 1018.09 1017.61 1017.61 1017.97 1018.13
1012.37 1012.41 1012.49 1012.57 1012.85 1012.89 1013.05 1013.05 1013.25 1013.61 1013.69 1013.97 1014.41 1014.57 1014.77 1015.09 1015.45 1015.41 1015.37 1015.57 1015.77 1015.89 1016.01 1016.09 1016.49 1016.81 1016.69 1016.85 1017.33 1017.57 1017.69 1017.41 1017.57 1017.81 1018.09 1018.13 1017.89 1018.13 1017.97 1017.69 1017.73 1018.21
1012.01 1012.21 1012.37 1012.57 1012.61 1012.57 1012.81 1012.73 1013.05 1013.33 1013.45 1013.85 1014.01 1014.17 1014.37 1014.65 1015.33 1015.29 1015.21 1015.41 1015.57 1015.65 1015.93 1016.05 1016.33 1016.61 1016.65 1016.73 1016.97 1017.21 1017.53 1017.41 1016.97 1017.25 1017.73 1017.89 1017.89 1017.93 1017.81 1017.65 1017.81 1017.89
1012.25 1011.89 1012.13 1012.21 1012.33 1012.29 1012.53 1012.53 1012.65 1013.01 1013.25 1013.57 1013.73 1013.69 1014.17 1014.33 1014.53 1014.73 1014.97 1015.29 1015.49 1015.65 1015.81 1015.97 1016.13 1016.33 1016.37 1016.45 1016.73 1016.77 1017.05 1017.21 1016.93 1016.85 1017.01 1017.25 1017.33 1017.33 1017.37 1017.41 1017.49 1017.69
1011.69 1011.85 1012.13 1012.05 1012.05 1012.05 1012.25 1012.29 1012.45 1012.69 1013.09 1013.41 1013.53 1013.65 1013.69 1014.13 1014.49 1014.45 1014.77 1015.17 1015.37 1015.45 1015.65 1015.85 1015.85 1015.97 1016.21 1016.21 1016.21 1016.21 1016.41 1016.53 1016.61 1016.69 1016.77 1016.85 1016.85 1016.97 1017.05 1017.13 1017.25 1017.33
1011.69 1012.33 1012.25 1011.81 1011.85 1011.85 1011.97 1012.13 1012.21 1012.49 1012.85 1013.21 1013.29 1013.57 1013.61 1013.69 1014.45 1014.41 1014.57 1014.85 1015.09 1015.09 1015.09 1015.37 1015.49 1015.61 1015.85 1015.93 1015.77 1015.77 1015.89 1016.01 1016.13 1016.29 1016.37 1016.45 1016.53 1016.57 1016.69 1016.73 1016.85 1016.97
1012.41 1011.85 1011.33 1011.49 1011.69 1011.65 1011.61 1011.81 1012.09 1012.25 1012.53 1012.93 1013.01 1013.25 1013.53 1013.61 1013.81 1014.21 1014.33 1014.49 1014.89 1014.81 1014.69 1014.85 1015.17 1015.25 1015.45 1015.57 1015.61 1015.49 1015.57 1015.77 1015.85 1015.93 1016.05 1016.13 1016.17 1016.25 1016.25 1016.33 1016.37 1016.45
1011.37 1011.05 1011.17 1011.25 1011.37 1011.53 1011.57 1011.69 1011.81 1012.01 1012.29 1012.37 1012.61 1013.05 1013.25 1013.29 1013.41 1013.81 1014.17 1014.25 1014.33 1014.33 1014.33 1014.37 1014.73 1015.01 1015.13 1015.25 1015.29 1015.33 1015.37 1015.53 1015.65 1015.69 1015.77 1015.81 1015.81 1015.93 1015.89 1015.93 1016.01 1016.01
1011.37 1011.17 1011.01 1011.25 1011.45 1011.61 1011.77 1011.81 1011.81 1011.89 1012.05 1012.21 1012.37 1012.57 1012.65 1012.77 1012.81 1013.01 1013.41 1013.73 1013.77 1013.93 1014.01 1014.05 1014.21 1014.53 1014.57 1014.77 1015.09 1015.17 1015.13 1015.21 1015.33 1015.49 1015.65 1015.77 1015.81 1015.77 1015.69 1015.73 1015.69 1015.65
1011.45 1011.45 1011.37 1011.33 1011.61 1011.77 1011.89 1011.89 1011.85 1011.85 1011.89 1012.13 1012.29 1012.37 1012.49 1012.53 1012.69 1012.81 1012.97 1013.29 1013.57 1013.73 1013.81 1013.81 1013.85 1013.77 1013.97 1014.33 1014.53 1014.61 1014.81 1014.85 1014.97 1015.21 1015.37 1015.53 1015.69 1015.69 1015.61 1015.53 1015.45 1015.37
1011.49 1011.61 1011.61 1011.77 1011.69 1011.73 1011.81 1011.89 1011.93 1011.85 1011.89 1012.13 1012.25 1012.37 1012.49 1012.61 1012.69 1012.89 1012.89 1012.89 1013.13 1013.37 1013.61 1013.57 1013.45 1013.33 1013.65 1014.09 1014.41 1014.65 1014.61 1014.65 1014.97 1015.05 1015.09 1015.25 1015.33 1015.57 1015.69 1015.45 1015.21 1015.01
1011.41 1011.49 1011.69 1011.73 1011.77 1011.89 1011.89 1011.93 1011.85 1011.93 1011.97 1012.05 1012.17 1012.29 1012.45 1012.45 1012.81 1012.93 1012.89 1012.81 1012.85 1012.97 1013.21 1013.21 1013.13 1013.09 1013.53 1013.89 1014.25 1014.49 1014.65 1014.61 1014.57 1014.73 1014.77 1014.85 1014.89 1014.89 1014.89 1014.97 1015.01 1014.97
1011.13 1011.29 1011.53 1011.65 1011.69 1011.77 1011.81 1011.93 1012.05 1012.05 1012.05 1012.05 1012.21 1012.09 1012.17 1012.61 1012.77 1012.85 1012.93 1012.85 1012.85 1013.05 1013.09 1012.93 1012.93 1013.01 1013.49 1013.73 1013.97 1014.25 1014.49 1014.61 1014.33 1014.33 1014.49 1014.53 1014.49 1014.53 1014.57 1014.61 1014.65 1014.73
1011.13 1011.29 1011.49 1011.53 1011.45 1011.49 1011.61 1011.81 1011.93 1012.01 1011.81 1011.65 1011.85 1012.01 1012.25 1012.41 1012.45 1012.61 1012.65 1012.77 1012.81 1012.93 1013.01 1012.89 1012.85 1012.81 1013.29 1013.57 1013.85 1014.13 1014.29 1014.53 1014.29 1014.21 1014.09 1014.09 1014.21 1014.25 1014.25 1014.29 1014.41 1014.57
1011.25 1011.29 1011.33 1011.29 1011.29 1011.33 1011.45 1011.57 1011.65 1011.69 1011.73 1011.65 1011.69 1011.93 1012.13 1012.29 1012.37 1012.45 1012.37 1012.41 1012.49 1012.57 1012.61 1012.65 1012.45 1012.57 1013.05 1013.33 1013.65 1013.97 1014.17 1014.45 1014.17 1013.97 1013.85 1013.77 1013.73 1013.77 1013.89 1013.97 1013.97 1014.01
1011.13 1011.13 1011.17 1011.13 1011.09 1011.13 1011.25 1011.37 1011.33 1011.37 1011.53 1011.49 1011.57 1011.53 1011.53 1011.69 1011.85 1011.97 1012.13 1012.21 1012.17 1012.25 1012.41 1012.45 1012.01 1012.13 1012.57 1012.97 1013.25 1013.57 1013.93 1014.09 1013.89 1013.97 1013.89 1013.65 1013.45 1013.33 1013.37 1013.45 1013.53 1013.61
1011.21 1011.17 1011.09 1011.01 1011.09 1011.13 1011.17 1011.05 1011.05 1011.05 1011.05 1010.93 1011.33 1011.37 1011.49 1011.61 1011.65 1011.73 1011.69 1011.85 1011.97 1012.01 1012.21 1012.17 1011.89 1011.81 1012.17 1012.45 1012.81 1013.09 1013.65 1013.61 1013.53 1013.49 1013.49 1013.53 1013.41 1013.13 1013.05 1013.05 1013.09 1013.13
1011.21 1011.13 1011.21 1011.09 1011.09 1011.29 1011.25 1011.09 1010.93 1010.81 1010.85 1010.65 1011.01 1011.21 1011.33 1011.21 1011.25 1011.33 1011.29 1011.37 1011.57 1011.69 1011.65 1011.85 1011.65 1011.41 1011.77 1012.09 1012.41 1012.77 1012.97 1012.93 1013.01 1013.13 1013.17 1013.17 1013.05 1012.85 1012.73 1012.65 1012.61 1012.73
1011.13 1011.09 1011.05 1011.05 1011.25 1011.41 1011.53 1011.77 1011.69 1011.77 1011.09 1010.77 1010.73 1010.81 1010.85 1010.81 1010.89 1011.09 1011.13 1011.05 1011.05 1011.17 1011.17 1011.37 1011.17 1010.97 1011.25 1011.65 1012.01 1012.37 1012.65 1012.49 1012.49 1012.57 1012.89 1012.85 1012.77 1012.73 1012.49 1012.37 1012.33 1012.29
1010.77 1010.93 1010.89 1010.89 1011.01 1011.13 1011.73 1012.29 1012.09 1012.09 1012.17 1012.29 1011.61 1010.81 1010.81 1010.69 1010.69 1010.73 1010.93 1010.85 1010.65 1010.73 1010.81 1010.85 1011.01 1010.85 1010.81 1011.25 1011.53 1011.89 1012.25 1012.21 1012.17 1012.41 1012.53 1012.49 1012.37 1012.37 1012.45 1012.29 1012.09 1012.01
Thickness
5744 5747 5749 5751 5752 5752 5752 5751 5750 5750 5749 5750 5749 5748 5749 5749 5749 5749 5749 5749 5748 5748 5749 5750 5752 5753 5755 5756 5758 5760 5762 5763 5765 5767 5767 5766 5768 5771 5771 5772 5774 5774
5742 5744 5748 5752 5753 5753 5754 5752 5752 5751 5750 5751 5752 5750 5750 5749 5749 5749 5749 5749 5748 5749 5750 5750 5752 5752 5754 5757 5757 5759 5759 5760 5763 5766 5766 5766 5768 5771 5771 5772 5773 5774
5740 5741 5747 5753 5753 5752 5754 5754 5753 5752 5752 5753 5753 5752 5752 5751 5750 5750 5750 5750 5749 5750 5751 5751 5753 5753 5755 5757 5757 5758 5759 5759 5761 5766 5766 5765 5768 5769 5771 5773 5774 5774
5740 5742 5748 5755 5755 5754 5755 5754 5752 5753 5753 5753 5753 5753 5754 5753 5752 5752 5751 5750 5749 5751 5752 5752 5754 5755 5756 5758 5758 5758 5760 5759 5761 5764 5763 5763 5767 5768 5770 5772 5773 5774
5745 5747 5752 5757 5757 5756 5757 5755 5754 5754 5754 5754 5754 5754 5754 5753 5753 5754 5753 5751 5750 5751 5753 5753 5754 5756 5756 5757 5757 5758 5759 5760 5761 5761 5761 5761 5764 5766 5769 5771 5771 5772
5750 5752 5756 5759 5758 5758 5757 5756 5756 5756 5755 5755 5755 5755 5754 5752 5752 5754 5755 5753 5752 5752 5754 5754 5754 5756 5758 5757 5757 5757 5759 5761 5762 5761 5760 5760 5763 5766 5769 5770 5769 5769
5754 5755 5757 5759 5759 5759 5759 5759 5758 5758 5757 5757 5756 5755 5754 5752 5751 5754 5755 5755 5755 5754 5755 5756 5756 5756 5758 5758 5756 5756 5758 5760 5762 5761 5759 5760 5761 5764 5767 5769 5768 5767
5757 5757 5758 5759 5759 5759 5759 5760 5759 5758 5758 5758 5756 5755 5755 5753 5752 5753 5755 5755 5756 5756 5756 5757 5756 5755 5757 5758 5756 5756 5757 5759 5761 5760 5757 5760 5761 5761 5764 5767 5766 5766
5758 5759 5759 5758 5760 5760 5760 5761 5760 5759 5759 5758 5758 5758 5757 5755 5753 5753 5755 5756 5756 5756 5757 5757 5756 5756 5757 5758 5758 5757 5756 5758 5762 5762 5759 5759 5760 5761 5763 5765 5765 5765
5758 5760 5759 5759 5761 5761 5761 5762 5762 5761 5759 5759 5759 5760 5759 5757 5756 5757 5757 5756 5756 5756 5756 5756 5757 5757 5758 5758 5759 5759 5758 5759 5762 5764 5763 5762 5763 5763 5764 5765 5765 5766
5759 5758 5757 5759 5761 5762 5762 5762 5763 5762 5760 5759 5760 5759 5760 5758 5757 5758 5758 5756 5757 5758 5758 5758 5758 5759 5759 5760 5762 5763 5762 5763 5763 5764 5764 5765 5765 5765 5765 5765 5765 5766
5758 5756 5758 5761 5762 5763 5763 5763 5763 5762 5760 5759 5760 5760 5760 5759 5758 5758 5759 5759 5758 5760 5761 5761 5761 5761 5761 5761 5763 5765 5765 5765 5765 5765 5766 5766 5766 5766 5766 5767 5767 5767
5756 5758 5762 5764 5763 5764 5765 5764 5764 5763 5762 5761 5761 5760 5760 5761 5760 5760 5760 5760 5759 5761 5763 5764 5762 5763 5762 5763 5764 5766 5767 5766 5767 5766 5767 5767 5767 5767 5768 5768 5769 5769
5758 5762 5765 5764 5764 5765 5765 5765 5765 5764 5764 5764 5764 5763 5762 5763 5764 5763 5762 5762 5762 5763 5765 5766 5765 5764 5764 5764 5764 5766 5766 5767 5767 5767 5767 5767 5767 5768 5769 5770 5770 5771
5759 5761 5763 5763 5763 5763 5762 5763 5765 5765 5766 5767 5766 5766 5766 5767 5768 5767 5766 5765 5765 5765 5766 5767 5767 5766 5767 5766 5766 5766 5767 5767 5768 5767 5766 5767 5767 5768 5769 5770 5771 5772
5757 5758 5760 5761 5760 5760 5761 5762 5763 5765 5767 5767 5767 5768 5768 5768 5769 5769 5768 5767 5767 5766 5766 5768 5769 5770 5770 5768 5767 5767 5767 5768 5767 5767 5767 5767 5767 5767 5768 5770 5771 5773
5755 5756 5757 5758 5759 5759 5760 5761 5762 5764 5765 5766 5766 5767 5767 5768 5768 5767 5768 5769 5768 5768 5767 5768 5770 5772 5770 5768 5766 5766 5767 5767 5767 5767 5768 5767 5767 5768 5768 5769 5772 5773
5755 5756 5757 5757 5758 5758 5759 5760 5761 5762 5763 5764 5765 5766 5766 5766 5766 5765 5766 5768 5768 5768 5768 5769 5771 5772 5770 5767 5766 5765 5765 5766 5767 5767 5768 5769 5769 5770 5770 5771 5772 5773
5757 5757 5757 5757 5758 5758 5759 5759 5759 5760 5762 5763 5764 5765 5766 5764 5764 5764 5765 5766 5767 5767 5768 5770 5771 5771 5769 5767 5766 5765 5763 5764 5767 5768 5768 5769 5770 5771 5772 5772 5772 5772
5756 5756 5755 5756 5758 5759 5759 5759 5759 5760 5762 5764 5765 5765 5764 5764 5764 5764 5765 5765 5767 5766 5766 5768 5770 5770 5768 5765 5764 5764 5762 5762 5765 5767 5769 5770 5770 5771 5772 5772 5772 5772
5752 5753 5754 5755 5757 5758 5759 5759 5760 5760 5762 5763 5764 5764 5764 5764 5763 5764 5765 5765 5767 5767 5767 5768 5770 5770 5768 5765 5764 5763 5761 5761 5763 5766 5768 5770 5771 5772 5772 5772 5773 5773
5750 5751 5753 5755 5756 5757 5758 5759 5760 5761 5762 5762 5764 5764 5765 5764 5764 5764 5764 5765 5766 5766 5766 5767 5771 5771 5768 5766 5765 5763 5760 5761 5763 5764 5766 5767 5770 5772 5772 5773 5774 5774
5747 5749 5751 5753 5754 5755 5756 5758 5760 5760 5762 5763 5762 5762 5764 5764 5764 5764 5765 5765 5765 5766 5766 5766 5769 5771 5769 5767 5766 5763 5761 5762 5763 5764 5765 5766 5768 5770 5772 5773 5774 5774
5745 5747 5748 5750 5751 5751 5751 5754 5755 5756 5759 5762 5762 5761 5762 5763 5764 5764 5765 5766 5766 5766 5767 5767 5769 5771 5770 5767 5765 5763 5762 5764 5765 5765 5765 5766 5767 5769 5771 5772 5773 5774
5744 5745 5746 5747 5747 5746 5745 5745 5746 5748 5751 5755 5758 5760 5761 5762 5763 5762 5763 5765 5766 5767 5767 5767 5769 5771 5770 5767 5765 5762 5762 5764 5765 5765 5765 5765 5766 5767 5768 5771 5772 5773
5744 5744 5745 5746 5746 5745 5743 5739 5739 5741 5742 5744 5750 5756 5757 5758 5760 5760 5761 5763 5765 5766 5766 5767 5768 5769 5769 5768 5765 5763 5761 5762 5764 5764 5764 5764 5765 5766 5766 5768 5770 5771